Wind_Speed
4 4 4 4 5 5 6 6 7 8 8 8 9 10 10 10 9 9 9 8 8 7 6 5 4 4 3 3 3 3 2 2 3 3 3 3 3 3 3 4 5 5 5
4 4 5 4 5 5 6 6 7 7 8 8 9 9 10 9 10 10 9 9 8 8 7 6 6 5 4 4 3 3 3 3 3 3 3 3 3 3 3 3 4 4 5
4 4 4 4 5 5 5 6 7 7 7 8 9 9 10 10 10 10 10 10 9 8 8 7 7 7 6 5 4 3 3 3 3 3 3 3 3 4 4 4 4 4 5
4 4 4 4 5 5 5 5 6 6 7 7 8 9 10 9 10 10 10 10 10 9 9 9 8 8 7 6 5 4 4 4 3 3 3 3 4 4 5 6 6 5 6
3 4 4 4 5 5 5 5 6 6 6 7 7 8 9 9 9 10 10 10 9 9 9 9 9 9 8 7 6 5 5 5 5 4 4 4 5 5 5 6 6 6 6
4 4 4 5 5 5 5 6 6 6 6 7 8 8 9 9 9 10 10 10 9 9 9 9 9 9 10 9 8 7 6 5 5 4 4 5 5 5 5 5 6 6 6
4 4 5 5 5 5 6 7 7 7 6 6 7 8 8 8 8 9 9 9 9 9 8 9 9 9 10 9 9 8 7 6 5 5 5 5 5 6 6 5 6 6 7
4 4 5 5 6 6 6 7 7 8 8 7 6 7 8 8 9 8 8 9 9 9 9 9 9 9 9 9 9 9 9 8 6 6 6 6 7 7 7 7 7 8 8
5 5 6 6 6 6 7 7 7 8 8 8 7 7 8 8 9 9 9 9 9 9 9 9 9 9 10 9 10 10 10 10 8 8 7 7 7 8 8 8 8 9 9
6 6 7 6 7 6 7 8 8 8 9 8 7 7 8 9 9 9 9 9 8 9 10 10 10 9 10 10 11 11 11 11 11 10 9 9 9 9 9 9 9 10 10
6 7 7 7 7 8 8 8 8 8 9 8 8 9 9 10 10 10 10 9 9 9 10 10 10 11 11 11 12 12 11 12 12 12 11 11 11 10 10 11 10 11 11
8 8 8 8 9 9 9 9 9 9 9 9 10 10 11 12 12 11 11 10 10 10 10 10 10 11 11 12 13 13 13 12 12 12 12 12 12 12 12 12 12 12 12
9 9 9 10 10 10 10 10 10 11 10 11 12 12 12 13 13 12 12 12 12 12 12 12 12 12 12 12 13 14 14 14 14 14 14 14 13 14 14 14 14 14 14
10 10 10 10 11 11 11 11 12 12 13 13 13 13 13 13 13 13 13 14 14 13 13 13 13 13 14 14 14 14 15 15 15 16 16 16 15 15 16 15 15 15 15
10 10 11 11 12 12 13 13 13 14 14 14 14 14 13 14 14 14 14 15 15 15 15 15 15 16 16 16 16 16 16 16 17 17 17 16 16 16 17 16 16 17 17
11 11 11 12 13 14 14 14 15 15 14 14 14 14 15 15 15 16 16 17 17 17 17 17 18 18 19 19 19 18 18 18 18 18 18 18 18 18 18 17 17 17 18
12 12 13 14 15 15 15 16 15 15 15 15 16 16 17 17 17 17 18 19 19 19 19 19 19 20 20 21 21 21 21 21 20 20 20 20 19 19 20 19 19 19 19
14 14 14 15 15 16 16 17 17 16 16 17 18 18 19 19 19 19 20 20 20 21 22 21 21 22 22 22 22 23 23 22 22 22 21 21 21 21 21 21 21 21 20
16 16 17 17 18 18 18 18 18 18 18 18 19 20 20 20 20 20 21 21 22 22 23 24 23 23 23 23 23 24 24 24 24 24 23 22 22 22 22 21 21 21 21
17 18 19 20 20 20 20 20 20 20 20 20 20 20 21 21 22 22 23 23 23 24 25 25 26 25 25 25 25 26 25 25 25 25 25 24 24 23 23 22 22 22 22
19 19 19 20 21 21 21 21 21 21 21 22 22 23 23 22 23 23 24 24 24 25 26 27 27 26 25 26 26 26 25 24 24 25 25 25 25 25 24 24 24 23 22
20 20 21 21 21 21 22 22 23 23 23 24 24 24 24 24 24 25 25 26 26 27 28 28 28 27 26 26 26 26 25 25 25 25 25 25 26 26 26 25 25 25 25
22 23 22 22 22 23 23 24 24 25 25 25 26 27 26 25 25 26 27 27 28 29 29 29 28 28 28 27 27 27 27 26 26 26 26 26 26 26 26 26 26 26 26
24 24 24 24 24 25 25 26 27 26 26 27 27 27 27 27 28 28 29 29 29 30 30 30 31 30 29 29 29 28 28 28 28 28 28 27 27 27 27 27 27 27 28
25 25 25 26 26 26 27 28 28 28 28 28 29 29 29 29 29 30 31 31 31 31 32 32 31 31 31 30 30 29 29 30 29 29 29 29 29 29 29 29 29 29 29
26 26 27 27 27 28 29 30 30 29 29 29 30 31 31 31 31 31 31 32 32 32 32 32 32 31 32 31 31 31 31 31 31 31 31 31 31 31 31 31 31 32 31
Wind_Direction
61 59 49 49 44 47 46 44 40 39 36 32 28 27 27 25 24 23 21 19 22 23 19 14 10 2 355 355 344 339 335 323 312 310 305 304 305 303 300 281 272 274 271
59 48 42 41 42 44 41 39 31 39 35 28 23 26 27 28 27 30 25 24 27 26 23 19 16 11 360 349 342 337 339 335 330 317 304 290 293 297 298 286 274 272 278
45 37 39 38 37 38 35 31 31 37 32 25 23 26 26 30 26 27 28 25 24 22 19 17 15 12 5 355 352 341 332 327 328 324 316 307 306 298 291 286 284 279 279
38 33 35 30 31 31 31 31 32 31 30 21 19 21 26 26 24 24 26 27 26 22 18 18 16 14 10 5 5 354 341 336 332 329 318 312 310 301 292 289 284 278 286
19 24 29 16 22 25 23 20 22 18 18 16 17 20 22 20 18 17 18 23 24 23 20 21 20 21 16 7 358 353 343 335 327 324 322 316 309 297 299 293 287 284 284
5 9 7 4 8 10 7 1 5 9 7 3 7 14 15 11 13 18 17 18 18 16 18 21 18 18 16 14 5 351 341 338 333 323 316 311 308 305 304 297 291 287 282
9 2 356 352 352 353 353 354 358 360 354 357 2 3 3 7 7 9 9 9 8 10 11 14 14 11 11 11 9 5 354 344 340 333 324 313 308 305 302 299 296 291 285
350 354 352 347 338 340 343 343 353 352 350 347 347 356 1 1 1 0 0 359 0 5 7 5 5 4 8 9 6 4 2 352 338 327 322 315 308 305 302 296 292 289 286
344 338 334 333 333 338 338 341 346 341 338 339 341 349 351 353 355 354 355 356 357 358 0 356 355 357 358 359 360 357 356 355 343 327 318 312 309 305 302 295 291 289 288
325 328 327 326 329 327 329 329 332 329 328 332 335 337 338 340 343 342 343 349 352 350 348 347 351 353 353 352 351 350 349 350 347 334 321 313 308 302 299 297 295 293 290
318 321 321 317 316 319 319 318 320 320 319 320 322 323 326 329 331 330 333 338 337 337 339 342 345 345 344 346 346 345 342 342 342 338 332 322 312 303 299 297 295 294 292
316 315 318 315 314 316 314 312 313 315 314 312 314 315 316 318 322 323 327 328 326 325 328 331 334 338 338 341 341 340 336 333 334 332 328 323 318 310 300 300 297 295 292
311 313 314 314 316 316 316 314 311 310 309 309 312 310 309 312 314 315 317 317 315 317 319 323 326 326 329 332 332 331 330 328 328 327 323 319 316 314 306 296 296 296 293
308 310 313 315 318 317 313 309 306 307 307 309 310 310 307 310 311 310 310 311 313 313 313 315 317 317 318 319 321 323 324 323 322 321 319 317 313 312 311 303 294 294 292
307 309 312 313 314 315 313 309 307 306 305 305 307 307 309 309 310 308 307 307 308 310 312 309 309 311 311 310 311 316 316 315 316 315 315 312 309 307 305 304 302 293 291
306 308 310 309 310 311 311 311 308 305 305 305 306 306 304 303 303 303 303 303 304 305 307 307 305 306 306 305 306 307 309 311 311 311 310 309 307 304 302 299 299 299 294
302 303 305 307 308 308 309 310 311 309 306 305 303 302 302 301 300 300 299 298 300 302 302 304 302 301 302 301 302 302 303 305 307 309 308 306 303 303 300 298 296 296 295
299 299 301 305 306 306 305 306 307 307 305 303 303 302 301 300 299 300 300 299 299 300 301 302 303 300 300 299 298 298 300 301 302 304 304 303 302 301 300 298 296 295 294
296 296 298 302 303 302 301 301 303 303 303 304 303 302 300 299 299 300 301 300 301 300 300 301 302 301 298 298 297 297 298 299 298 298 298 298 299 300 298 297 295 293 293
295 295 297 299 300 300 299 299 300 301 303 303 302 302 300 298 297 298 299 300 301 300 300 300 300 301 298 296 295 295 295 297 297 297 296 296 297 297 296 294 293 294 293
295 296 297 298 298 298 299 299 300 301 301 300 300 300 299 297 295 296 298 299 299 299 300 301 300 301 299 297 296 296 297 298 299 299 297 296 295 296 295 292 291 290 291
296 296 296 296 297 297 299 300 301 301 300 298 298 298 298 296 294 294 295 296 297 297 298 299 299 299 298 297 295 296 298 298 298 299 299 298 296 297 295 292 291 290 290
294 295 294 294 296 297 298 299 300 300 300 299 297 299 300 299 297 295 294 295 295 296 297 297 298 298 297 297 296 295 296 297 297 298 297 297 297 297 295 294 291 290 290
291 292 294 294 294 296 298 299 299 299 299 299 298 300 298 297 297 295 295 295 295 296 297 298 297 297 297 296 295 294 292 293 294 294 295 295 295 296 294 293 292 290 289
291 290 290 293 295 298 299 299 299 299 300 300 299 300 298 297 297 296 296 295 294 295 295 296 296 295 295 294 293 292 291 291 290 291 291 291 292 293 293 292 291 290 289
291 290 290 291 293 295 296 297 298 298 300 299 297 296 297 298 297 298 297 296 296 295 295 295 294 293 293 293 293 292 291 290 289 288 289 289 290 291 291 291 291 291 291
Height
5897 5897 5897 5896 5896 5896 5895 5895 5894 5893 5893 5892 5891 5890 5889 5888 5886 5885 5884 5882 5881 5881 5880 5880 5879 5879 5878 5878 5877 5877 5877 5876 5876 5876 5876 5876 5876 5876 5876 5877 5877 5878 5878
5898 5898 5898 5897 5897 5897 5896 5896 5894 5894 5893 5893 5891 5890 5889 5888 5887 5886 5885 5883 5882 5882 5881 5880 5880 5879 5878 5878 5877 5877 5876 5876 5876 5875 5875 5875 5875 5875 5875 5876 5876 5876 5877
5899 5899 5899 5898 5898 5897 5897 5896 5896 5895 5894 5893 5893 5891 5890 5889 5888 5887 5886 5884 5883 5882 5881 5881 5880 5879 5878 5878 5877 5877 5876 5876 5875 5875 5874 5874 5874 5874 5874 5874 5874 5875 5875
5900 5899 5899 5899 5898 5898 5897 5897 5896 5896 5895 5894 5893 5892 5891 5890 5889 5888 5887 5885 5884 5883 5882 5881 5880 5879 5878 5878 5877 5876 5876 5875 5875 5874 5874 5873 5873 5873 5873 5873 5873 5873 5873
5901 5900 5900 5900 5899 5899 5898 5898 5897 5896 5896 5895 5894 5893 5892 5890 5889 5889 5887 5885 5885 5884 5883 5882 5881 5879 5879 5878 5877 5876 5875 5875 5874 5874 5873 5873 5872 5872 5871 5871 5871 5871 5871
5901 5901 5901 5900 5899 5899 5899 5898 5897 5896 5896 5895 5894 5893 5892 5891 5890 5889 5888 5886 5885 5884 5883 5882 5881 5880 5879 5877 5876 5875 5875 5874 5873 5873 5872 5872 5871 5870 5870 5870 5870 5870 5870
5902 5902 5901 5900 5900 5900 5899 5898 5897 5897 5896 5895 5894 5893 5893 5891 5890 5889 5888 5887 5886 5884 5883 5881 5880 5880 5879 5877 5876 5875 5874 5873 5872 5872 5871 5870 5870 5869 5869 5868 5868 5868 5868
5902 5902 5901 5901 5900 5900 5899 5898 5897 5897 5896 5895 5894 5893 5892 5892 5890 5889 5888 5887 5885 5884 5883 5881 5880 5880 5879 5877 5876 5875 5874 5872 5871 5870 5870 5869 5868 5868 5867 5867 5866 5866 5866
5902 5902 5901 5901 5900 5900 5899 5898 5897 5897 5896 5895 5894 5893 5892 5891 5890 5888 5887 5886 5884 5883 5883 5882 5880 5879 5878 5877 5875 5874 5873 5871 5870 5869 5868 5867 5867 5866 5866 5865 5864 5864 5863
5902 5901 5901 5900 5899 5899 5898 5898 5897 5896 5895 5894 5893 5892 5891 5890 5889 5888 5886 5884 5883 5883 5882 5881 5880 5878 5877 5876 5874 5873 5872 5870 5869 5868 5867 5866 5865 5864 5864 5863 5862 5861 5861
5901 5901 5900 5899 5899 5898 5897 5896 5896 5894 5894 5893 5892 5891 5889 5889 5888 5887 5885 5884 5883 5882 5881 5879 5878 5877 5876 5875 5873 5872 5870 5869 5868 5866 5865 5864 5863 5862 5861 5860 5860 5859 5858
5901 5900 5899 5898 5898 5897 5896 5895 5894 5893 5892 5892 5891 5890 5888 5887 5886 5885 5884 5883 5881 5880 5879 5878 5877 5876 5874 5873 5872 5870 5869 5867 5866 5865 5863 5862 5861 5859 5858 5857 5856 5856 5855
5900 5899 5898 5897 5896 5895 5894 5893 5892 5892 5891 5890 5889 5888 5887 5886 5884 5883 5882 5881 5880 5878 5877 5876 5875 5874 5872 5871 5870 5868 5867 5865 5864 5862 5861 5859 5858 5857 5855 5854 5853 5852 5852
5898 5897 5896 5896 5895 5894 5893 5892 5891 5889 5889 5887 5886 5885 5884 5883 5882 5881 5879 5878 5877 5876 5875 5874 5873 5871 5870 5869 5867 5866 5864 5863 5861 5859 5858 5856 5855 5853 5852 5851 5850 5849 5848
5896 5896 5895 5894 5893 5892 5890 5889 5888 5887 5886 5885 5884 5882 5881 5880 5879 5878 5877 5875 5874 5873 5872 5871 5869 5868 5867 5866 5865 5863 5862 5859 5858 5856 5854 5852 5851 5849 5848 5847 5845 5844 5843
5894 5893 5892 5892 5890 5889 5888 5886 5885 5884 5882 5881 5880 5879 5878 5877 5876 5875 5873 5872 5870 5869 5868 5867 5866 5864 5863 5862 5860 5859 5858 5856 5854 5852 5850 5848 5846 5845 5844 5842 5841 5840 5839
5892 5891 5890 5889 5888 5886 5885 5883 5882 5881 5879 5878 5877 5875 5874 5873 5872 5871 5869 5868 5866 5865 5864 5863 5861 5860 5858 5857 5856 5855 5853 5851 5849 5847 5846 5844 5842 5840 5839 5837 5836 5835 5834
5889 5888 5887 5886 5884 5883 5882 5880 5878 5877 5875 5874 5873 5871 5870 5869 5867 5866 5865 5863 5862 5861 5859 5858 5857 5855 5854 5852 5851 5849 5848 5846 5844 5842 5840 5839 5837 5835 5834 5832 5831 5829 5828
5886 5885 5884 5883 5881 5879 5878 5876 5874 5873 5871 5870 5868 5867 5865 5864 5863 5861 5860 5858 5857 5856 5854 5853 5851 5850 5848 5846 5845 5843 5841 5840 5838 5836 5834 5833 5831 5829 5828 5826 5825 5823 5822
5882 5881 5880 5878 5877 5875 5873 5872 5870 5868 5867 5865 5864 5862 5860 5859 5857 5856 5855 5853 5852 5850 5848 5847 5845 5844 5842 5840 5838 5836 5835 5833 5831 5829 5828 5826 5825 5823 5822 5820 5819 5817 5816
5878 5876 5875 5874 5872 5870 5869 5867 5865 5863 5862 5861 5859 5857 5855 5853 5852 5850 5849 5847 5846 5844 5842 5840 5839 5837 5835 5833 5831 5829 5828 5826 5824 5822 5820 5819 5818 5817 5815 5813 5812 5810 5809
5873 5871 5870 5868 5867 5865 5864 5862 5860 5858 5857 5855 5853 5851 5849 5847 5846 5844 5843 5841 5839 5837 5836 5834 5832 5830 5828 5826 5824 5822 5820 5819 5818 5816 5814 5812 5810 5809 5807 5806 5804 5803 5802
5868 5866 5864 5863 5861 5860 5858 5856 5854 5852 5850 5849 5846 5844 5843 5841 5839 5838 5836 5834 5832 5830 5828 5826 5824 5822 5820 5818 5816 5815 5812 5811 5810 5808 5806 5804 5803 5801 5799 5798 5796 5795 5794
5862 5860 5859 5857 5856 5854 5852 5850 5848 5845 5844 5842 5840 5838 5836 5834 5832 5830 5828 5826 5824 5822 5820 5818 5816 5814 5812 5810 5808 5806 5805 5803 5802 5800 5798 5796 5794 5793 5791 5790 5788 5787 5785
5855 5854 5852 5851 5849 5848 5846 5844 5841 5839 5837 5835 5833 5831 5829 5827 5824 5822 5820 5818 5816 5813 5811 5809 5807 5805 5803 5801 5800 5798 5796 5794 5793 5791 5789 5787 5786 5784 5782 5781 5779 5778 5777
5849 5847 5845 5844 5842 5841 5839 5837 5834 5832 5830 5828 5826 5824 5822 5819 5816 5814 5812 5809 5807 5805 5803 5801 5798 5796 5794 5792 5790 5789 5787 5785 5783 5782 5780 5778 5776 5775 5774 5772 5770 5768 5767